Location: Unspecified
(49.2170°N, 0.0000°E)
Time: 04:29:56
(UTC+00:00)

A-11 Canister half - Pass Details

Date: 20 June 2021
Orbit: 1513 x 1687 km, 47.2° (Epoch: 03 August)

Event Time Altitude Azimuth Distance (km) Brightness Sun altitude
Exits shadow 03:02:38 - 196° (SSW) 4,563 10.9 -6.9°
Reaches altitude 10° 03:05:05 10° 189° (S) 3,922 10.6 -6.7°
Maximum altitude 03:13:09 29° 135° (SE) 2,701 10.3 -5.8°
Drops below altitude 10° 03:21:01 10° 81° (E) 3,839 12.0 -4.9°
Sets 03:24:37 0° 71° (ENE) 4,800 13.0 -4.5°
